THOR ABLESTAR DEB, 48823

Orbit data source: Space-Track

THOR ABLESTAR DEB, 48823 is space debris in LEO originally from a launch on Thu, 29 Jun 1961 UTC launched from the Air Force Eastern Test Range (AFETR). Debris objects in space refer to the collection of defunct objects orbiting the Earth. Examples of debris include non-operational satellites, rocket bodies, and fragments generated from explosions, collisions, or faulty payload assembly.

Loading next visibility...
Identifier
48823, 1961-015NB
Orbit
LEO
Country
Flag of USUS
Related business
Manufacturer
Unknown
Mission
Spacecraft
Bus & Motor
Unknown
Mass
Unknown
Launch date (UTC)
1961-06-29 (64 years ago)
Launch vehicle
Unknown
Launch site
Air Force Eastern Test Range (AFETR)
Object type
Payload
Rocket body
Debris
Shape & HBR
Unknown shape, 0.1 m
Radar Cross Section
Small (<0.1 m²)

Expand to show TLE details & history
Last TLE update: 5 hours ago

TLE from 5 hours ago
0 THOR ABLESTAR DEB
1 48823U 61015NB  25299.51423183  .00001180  00000-0  40103-3 0  9993
2 48823  66.6567 256.0473 0120728 249.1717 109.6420 14.36193448624154
Epoch: 2025-10-26T12:20Z
TLE epoch observation values (Epoch: 2025-10-26T12:20:29.630Z)
Latitude
Longitude
35.79451°
Altitude
803.147 km
Speed
7.437 km/s
True Right ascension
17h 04m 11s
True Declination
0° 00' 00"
Sunlit
Object was in daylight at epoch
Visualization orbit readout
Latitude
Unknown
Longitude
Unknown
Altitude
Unknown
Speed
Unknown
Apparent Right ascension
Unknown
Apparent Declination
Unknown
Sunlit
N/A
Visualization observer readout
Local Sidereal Time
12:54:18
Azimuth
Unknown
Elevation
Unknown
Doppler factor
Unknown
Orbital elements
Apogee altitude
855.77 km
Perigee altitude
683.186 km
Semi-major axis
7,147.615 km
Eccentricity
0.01207
Inclination
66.6567°
RAAN
256.0473°
Arg. of periapsis
249.1717°
True anomaly
110.93825°
Mean anomaly
109.642°
Eccentric anomaly
110.2908°
Mean motion
3.59171 °/min
Orbital period
100.23 mins
BSTAR
0.00040103
Loading maneuver chart data...
Computing Atmospheric mass density...

Documentation

Showing up to 5 results
|